Big Bear Station Historical Data
Daily Summary for November 29, 2017 Units:  English    Metric   Both
« Previous Day
Next Day »
Daily Weekly Monthly Yearly Custom
  High: Low: Average:
Temperature: 58.5 °F 28.9 °F 39.9 °F
Dew Point: 26.9 °F 9.9 °F 18.9 °F
Humidity: 74 % 18 % 47 %
Wind Speed: 6.8 mph 0.0 mph 0.9 mph
Wind Gust: -999.0 mph - -
Wind:- - SW
Pressure: 30.26 in 30.17 in -
Precipitation: 0.00 in    
Historical Graphs
 
 
Tabular Data for November 29, 2017
Time Temperature Dew Point Pressure Wind Wind Speed Wind Gust Humidity Rainfall Rate (Hourly)
00:02 33.4 °F 16.3 °F 30.18 in South 1.7 mph -999.0 mph 49 % 0 in
00:17 33.3 °F 16.2 °F 30.18 in Calm   -999.0 mph 49 % 0 in
00:32 32.9 °F 15.8 °F 30.18 in Calm   -999.0 mph 49 % 0 in
01:03 33.3 °F 16.6 °F 30.19 in Calm   -999.0 mph 50 % 0 in
01:18 33.8 °F 17.6 °F 30.18 in SSE 1.1 mph -999.0 mph 51 % 0 in
01:34 33.3 °F 17.1 °F 30.18 in Calm   -999.0 mph 51 % 0 in
01:50 34.0 °F 18.2 °F 30.18 in Calm   -999.0 mph 52 % 0 in
02:05 33.8 °F 18.0 °F 30.18 in Calm   -999.0 mph 52 % 0 in
02:20 33.8 °F 18.5 °F 30.18 in SSE 1.7 mph -999.0 mph 53 % 0 in
02:51 33.6 °F 17.8 °F 30.18 in Calm   -999.0 mph 52 % 0 in
03:06 33.3 °F 17.6 °F 30.18 in South 2.2 mph -999.0 mph 52 % 0 in
03:22 32.9 °F 18.1 °F 30.17 in SSE 1.7 mph -999.0 mph 54 % 0 in
03:37 32.4 °F 19.7 °F 30.18 in Calm   -999.0 mph 59 % 0 in
04:07 31.3 °F 20.9 °F 30.17 in Calm   -999.0 mph 65 % 0 in
04:38 30.4 °F 21.8 °F 30.18 in South 1.1 mph -999.0 mph 70 % 0 in
04:53 29.8 °F 20.5 °F 30.18 in Calm   -999.0 mph 68 % 0 in
05:08 29.8 °F 20.9 °F 30.18 in Calm   -999.0 mph 69 % 0 in
05:38 29.1 °F 20.9 °F 30.19 in Calm   -999.0 mph 71 % 0 in
05:54 29.5 °F 21.6 °F 30.19 in Calm   -999.0 mph 72 % 0 in
06:09 29.1 °F 20.9 °F 30.20 in Calm   -999.0 mph 71 % 0 in
06:24 28.9 °F 21.3 °F 30.20 in Calm   -999.0 mph 73 % 0 in
06:39 29.1 °F 21.8 °F 30.20 in Calm   -999.0 mph 74 % 0 in
06:54 29.5 °F 21.3 °F 30.21 in Calm   -999.0 mph 71 % 0 in
07:10 29.5 °F 19.9 °F 30.21 in Calm   -999.0 mph 67 % 0 in
07:25 29.3 °F 19.7 °F 30.21 in Calm   -999.0 mph 67 % 0 in
07:40 29.7 °F 21.1 °F 30.21 in Calm   -999.0 mph 70 % 0 in
07:55 30.6 °F 22.3 °F 30.22 in Calm   -999.0 mph 71 % 0 in
08:11 31.6 °F 23.3 °F 30.22 in Calm   -999.0 mph 71 % 0 in
08:26 32.5 °F 23.1 °F 30.22 in Calm   -999.0 mph 68 % 0 in
08:56 34.5 °F 23.6 °F 30.23 in Calm   -999.0 mph 64 % 0 in
09:27 37.9 °F 26.4 °F 30.23 in Calm   -999.0 mph 63 % 0 in
09:42 39.2 °F 26.9 °F 30.23 in Calm   -999.0 mph 61 % 0 in
09:57 41.9 °F 14.9 °F 30.23 in Calm   -999.0 mph 33 % 0 in
10:27 47.8 °F 15.4 °F 30.23 in Calm   -999.0 mph 27 % 0 in
10:43 47.7 °F 13.6 °F 30.23 in Calm   -999.0 mph 25 % 0 in
10:58 52.2 °F 9.9 °F 30.22 in SSW 1.1 mph -999.0 mph 18 % 0 in
11:28 55.2 °F 12.4 °F 30.20 in West 2.2 mph -999.0 mph 18 % 0 in
11:43 56.8 °F 14.9 °F 30.20 in NNW 3.7 mph -999.0 mph 19 % 0 in
11:59 57.9 °F 20.3 °F 30.19 in NNW 4.7 mph -999.0 mph 23 % 0 in
12:14 58.5 °F 20.8 °F 30.19 in West 2.7 mph -999.0 mph 23 % 0 in
12:44 58.5 °F 18.7 °F 30.19 in NW 6.8 mph -999.0 mph 21 % 0 in
13:00 56.3 °F 17.9 °F 30.19 in WNW 4.2 mph -999.0 mph 22 % 0 in
13:15 55.0 °F 16.8 °F 30.19 in NNE 2.7 mph -999.0 mph 22 % 0 in
13:31 54.5 °F 17.4 °F 30.19 in NW 4.7 mph -999.0 mph 23 % 0 in
13:46 54.0 °F 18.0 °F 30.19 in WNW 3.2 mph -999.0 mph 24 % 0 in
14:16 53.4 °F 17.5 °F 30.19 in NE 3.2 mph -999.0 mph 24 % 0 in
14:31 53.2 °F 17.3 °F 30.19 in SSW 1.7 mph -999.0 mph 24 % 0 in
15:02 52.3 °F 17.5 °F 30.19 in NW 3.7 mph -999.0 mph 25 % 0 in
15:17 51.8 °F 17.1 °F 30.19 in Calm   -999.0 mph 25 % 0 in
15:32 51.4 °F 17.6 °F 30.20 in WNW 2.7 mph -999.0 mph 26 % 0 in
15:47 50.7 °F 17.9 °F 30.20 in WNW 5.3 mph -999.0 mph 27 % 0 in
16:03 50.0 °F 17.3 °F 30.20 in West 1.1 mph -999.0 mph 27 % 0 in
16:18 48.7 °F 17.8 °F 30.20 in Calm   -999.0 mph 29 % 0 in
16:33 47.8 °F 17.1 °F 30.21 in Calm   -999.0 mph 29 % 0 in
16:48 46.0 °F 17.8 °F 30.21 in Calm   -999.0 mph 32 % 0 in
17:03 45.0 °F 18.3 °F 30.21 in Calm   -999.0 mph 34 % 0 in
17:19 44.4 °F 18.4 °F 30.21 in Calm   -999.0 mph 35 % 0 in
17:34 43.3 °F 18.8 °F 30.22 in Calm   -999.0 mph 37 % 0 in
17:49 42.1 °F 18.3 °F 30.22 in South 2.2 mph -999.0 mph 38 % 0 in
18:19 40.5 °F 18.6 °F 30.23 in Calm   -999.0 mph 41 % 0 in
18:35 39.7 °F 17.9 °F 30.23 in Calm   -999.0 mph 41 % 0 in
18:50 39.2 °F 18.0 °F 30.24 in Calm   -999.0 mph 42 % 0 in
19:05 38.8 °F 18.2 °F 30.24 in Calm   -999.0 mph 43 % 0 in
19:20 38.7 °F 18.1 °F 30.25 in Calm   -999.0 mph 43 % 0 in
19:36 37.8 °F 18.3 °F 30.25 in Calm   -999.0 mph 45 % 0 in
20:06 37.2 °F 18.3 °F 30.25 in Calm   -999.0 mph 46 % 0 in
21:22 35.4 °F 19.5 °F 30.26 in Calm   -999.0 mph 52 % 0 in
21:37 35.1 °F 20.5 °F 30.26 in Calm   -999.0 mph 55 % 0 in
21:52 34.9 °F 21.6 °F 30.26 in Calm   -999.0 mph 58 % 0 in
22:53 33.8 °F 20.2 °F 30.26 in Calm   -999.0 mph 57 % 0 in
23:08 33.1 °F 21.1 °F 30.26 in Calm   -999.0 mph 61 % 0 in
23:24 33.3 °F 20.9 °F 30.26 in Calm   -999.0 mph 60 % 0 in
23:39 32.7 °F 20.3 °F 30.26 in Calm   -999.0 mph 60 % 0 in
Big Bear CA Weather
Compliments of Weather Underground - 1.25 mb